Wind_Speed
14 13 12 11 10 7 5 5 9 11 12 11 10 10 9 8 7 7 8 7 7 7 8 8 9 9 9 10 10 10 10 11 11 11 11 11 11 11 11 10 9 9 8 7 7 6 6 6 6
14 14 13 12 10 7 5 8 12 14 13 11 11 11 10 9 9 9 9 9 9 9 9 10 10 11 11 11 11 11 11 11 12 12 12 12 12 11 11 11 11 10 9 9 8 7 7 7 7
14 14 14 13 10 7 7 11 16 16 13 13 12 12 10 10 10 10 10 11 11 11 11 11 11 12 12 13 13 12 12 12 13 13 13 13 12 12 12 12 11 11 11 10 10 9 9 9 8
15 15 14 13 11 9 11 15 18 17 15 14 13 12 11 11 11 12 12 12 12 12 13 13 13 13 14 14 14 14 14 13 13 13 13 14 13 13 13 13 13 12 12 12 12 11 11 11 11
15 14 14 11 11 12 16 17 18 17 16 14 14 13 12 12 12 13 13 13 13 14 14 14 14 15 15 15 15 15 15 15 14 14 14 14 14 14 14 13 13 13 13 13 13 13 13 13 13
14 14 12 10 12 16 18 18 16 15 17 17 17 15 14 12 13 13 13 14 15 15 16 16 16 16 16 16 16 17 16 16 16 16 15 15 15 14 14 14 14 14 15 15 15 15 15 15 15
14 14 11 10 12 17 18 19 18 17 18 18 17 16 14 13 14 14 15 15 16 16 17 16 17 17 17 18 18 18 18 18 17 17 17 16 16 15 15 15 16 16 16 17 17 17 16 17 17
14 14 12 10 12 17 19 20 19 18 19 18 18 16 15 14 15 16 16 17 17 17 17 17 17 18 18 18 18 19 19 19 18 18 18 17 17 16 16 16 17 17 17 18 19 18 18 18 18
14 13 11 10 14 18 19 20 20 19 19 19 19 17 15 15 16 17 18 18 18 18 18 18 19 19 19 19 20 20 20 20 20 19 19 18 18 18 17 18 18 18 19 19 20 20 19 19 20
14 10 9 14 17 18 20 21 19 19 20 20 19 17 16 17 18 19 19 19 20 20 20 20 20 20 20 20 21 21 21 21 21 20 20 19 19 19 19 19 19 20 20 20 20 21 21 21 21
14 13 15 19 22 22 21 19 19 20 21 21 19 17 17 18 19 20 20 20 21 21 21 21 21 21 21 21 21 22 23 22 22 22 21 20 20 20 20 20 20 21 21 21 21 22 22 22 22
15 16 18 20 22 22 21 19 19 21 22 21 20 20 19 20 21 21 21 21 22 22 22 22 22 22 22 22 23 24 24 23 21 21 22 22 21 22 22 21 22 21 21 21 22 22 23 23 22
17 18 19 21 21 21 21 20 20 21 22 22 21 20 21 21 21 21 21 22 22 23 23 23 24 24 25 25 25 25 24 23 23 23 23 23 23 23 23 23 24 23 22 22 22 23 22 23 24
17 17 18 20 20 19 20 18 20 21 22 22 21 22 21 21 22 23 23 23 23 23 24 24 25 26 26 26 25 25 24 23 23 23 23 24 24 25 25 25 24 24 24 23 23 24 24 25 25
14 14 15 16 17 18 18 17 20 21 21 22 22 23 22 22 23 23 23 24 23 23 24 24 25 26 26 26 25 26 25 24 24 24 23 24 26 26 26 25 25 25 24 24 24 25 25 26 25
10 11 12 14 17 18 17 17 19 22 23 22 22 22 23 23 23 24 24 24 24 24 24 26 26 26 26 26 26 26 26 25 25 26 25 25 26 27 27 26 26 25 25 26 26 26 26 26 26
8 8 10 13 16 16 17 16 20 22 22 22 21 23 24 24 24 25 25 25 25 25 25 26 26 26 27 27 28 27 27 27 27 27 26 26 27 28 28 27 27 27 27 27 28 28 28 28 28
7 8 11 13 16 16 17 17 19 20 22 21 22 23 24 24 25 25 25 25 25 25 25 25 26 26 27 27 27 27 28 28 28 28 28 28 28 29 30 29 28 28 28 28 29 29 28 29 29
10 10 13 14 15 17 17 18 19 17 19 22 23 24 24 25 25 25 25 24 25 26 26 27 27 27 27 28 27 28 28 29 29 29 30 29 29 30 30 30 30 30 30 30 30 30 30 30 30
11 12 14 14 15 18 18 18 19 18 20 22 24 25 24 25 26 26 26 26 26 26 27 26 27 28 28 29 29 29 29 29 29 29 30 30 31 31 31 31 31 32 31 30 30 31 32 31 31
10 11 14 15 16 17 17 19 19 21 22 23 24 25 25 25 26 27 27 28 28 28 28 28 29 29 30 30 30 31 31 31 31 30 31 31 31 31 31 31 31 31 31 31 31 32 33 32 32
11 13 15 16 16 15 16 18 20 21 23 24 24 25 25 26 27 27 28 28 29 29 29 29 30 30 30 31 31 32 32 32 32 31 30 30 30 30 31 31 31 32 32 31 32 32 33 33 33
13 15 15 15 15 16 16 19 22 22 23 25 26 25 25 28 29 28 27 28 29 29 28 29 29 30 31 31 31 32 32 32 31 31 31 31 30 31 31 30 31 31 32 32 32 32 32 33 33
14 15 14 14 15 18 19 22 22 21 23 25 25 25 26 27 27 26 27 28 28 28 28 29 29 30 31 32 32 32 32 32 32 32 31 31 31 30 30 31 31 31 31 31 31 31 32 33 33
14 13 14 15 16 19 19 20 21 21 24 25 26 26 27 26 27 26 26 26 26 26 27 28 29 30 30 31 31 31 31 32 32 32 32 32 31 31 31 32 32 31 31 32 32 31 31 31 31
13 12 15 17 16 18 18 19 20 22 22 24 26 27 27 27 26 25 25 25 25 26 26 27 27 28 29 30 30 30 31 31 31 32 32 32 32 31 31 30 31 31 32 32 32 32 31 30 30
13 13 15 18 18 18 17 20 23 24 22 23 25 27 27 26 25 25 25 24 24 25 26 26 27 28 29 29 29 29 30 30 31 31 32 31 30 30 30 30 30 30 30 30 30 30 30 29 29
14 15 14 16 18 19 18 21 23 24 24 22 23 25 25 24 23 23 23 24 24 25 26 26 27 28 29 29 29 29 29 28 28 29 30 29 28 29 30 29 30 30 30 29 29 29 29 28 28
15 15 16 17 18 19 20 21 22 24 24 24 24 23 23 23 23 23 24 24 25 26 26 26 27 28 28 28 28 28 27 27 28 28 28 28 28 29 29 29 29 30 29 29 29 29 29 29 29
14 15 16 18 18 19 20 20 19 22 22 23 23 22 23 23 23 22 22 23 24 24 25 25 26 26 26 26 26 26 27 27 28 27 27 28 29 29 29 29 28 28 28 28 28 28 28 29 29
Wind_Direction
216 213 210 205 197 180 174 197 230 240 239 230 226 236 243 254 266 265 272 275 281 287 286 284 285 286 286 284 285 287 288 287 286 284 282 279 278 277 277 277 277 278 279 279 282 286 289 290 294
216 213 209 206 200 175 193 221 233 242 244 241 239 247 251 256 264 268 274 279 284 290 290 288 287 287 287 286 286 286 287 286 285 285 283 281 280 277 276 277 276 276 277 278 278 280 281 282 283
212 211 208 204 199 187 207 230 237 244 247 246 245 250 256 261 267 272 278 281 285 291 291 289 288 288 288 288 288 288 287 287 287 287 285 283 281 279 277 276 277 277 276 277 277 276 276 276 276
210 209 206 206 199 202 214 227 238 245 247 246 251 254 256 263 272 276 280 283 285 290 291 289 288 288 289 290 288 287 287 287 287 288 288 285 283 281 280 279 279 279 279 278 278 277 277 276 275
210 207 205 202 207 219 231 232 237 243 247 250 252 255 258 265 271 274 279 282 286 290 290 290 287 287 288 290 288 285 285 285 287 288 289 288 285 283 281 280 280 280 280 279 279 279 278 278 276
209 205 201 206 220 231 238 236 237 242 244 246 249 253 260 266 272 275 282 284 286 288 290 290 289 287 287 287 287 283 284 285 286 286 285 286 285 281 280 280 280 280 279 278 277 278 278 277 276
212 204 201 210 228 241 241 242 240 243 244 244 246 256 261 266 275 282 285 287 287 287 288 289 288 288 288 287 287 283 283 284 284 283 282 284 284 282 280 281 281 280 279 277 277 277 276 275 274
212 209 205 211 232 240 248 248 244 240 245 247 253 260 267 272 276 284 286 289 290 289 288 287 288 287 287 286 287 285 283 282 282 282 282 282 282 281 280 280 280 280 279 277 276 276 275 275 274
211 212 210 217 234 237 243 248 244 243 246 252 259 266 272 275 280 285 287 288 289 289 287 286 287 287 287 286 287 286 286 284 282 282 282 282 280 279 279 278 279 278 278 278 276 275 275 274 273
211 212 221 225 228 236 241 246 247 246 250 257 257 264 271 277 281 284 286 289 290 290 287 286 286 285 286 286 285 286 287 285 283 282 282 283 281 280 279 278 279 279 278 278 277 277 275 273 273
213 216 227 230 229 235 243 242 244 249 251 257 263 269 273 277 281 284 286 287 288 289 288 288 286 286 286 286 285 288 288 287 284 283 283 282 282 282 281 280 281 281 280 279 277 278 276 274 272
223 228 232 235 238 243 249 246 248 250 255 258 265 272 275 278 282 284 285 285 286 287 287 286 287 287 287 288 289 290 289 286 286 285 286 285 283 283 283 282 282 282 281 280 281 280 278 277 276
232 236 238 241 246 247 250 249 250 251 254 258 264 270 273 277 281 283 284 284 286 286 286 287 287 287 288 288 288 290 290 286 288 287 286 285 285 284 284 284 283 282 282 282 281 280 280 279 276
235 239 244 247 248 248 251 251 252 253 255 261 265 271 274 277 279 283 284 283 285 286 285 287 287 288 289 288 288 288 289 287 287 288 285 285 284 283 283 285 284 283 283 283 282 280 281 282 280
241 246 249 252 254 257 256 255 257 257 261 264 267 271 273 276 279 282 282 283 285 285 285 288 287 287 289 289 288 288 287 286 287 287 285 285 285 284 283 283 283 283 282 283 282 282 282 282 283
245 254 255 259 261 267 263 258 258 263 265 265 269 275 278 277 278 281 284 284 284 284 284 286 287 287 288 288 287 285 285 285 287 285 283 284 286 284 283 281 281 282 283 283 284 284 284 284 284
257 267 258 257 265 271 270 261 262 262 266 267 272 277 279 278 279 282 283 284 283 284 284 285 287 286 286 286 284 282 285 286 286 285 283 283 284 284 282 281 281 281 282 283 284 284 283 282 282
249 255 256 260 261 266 271 268 264 263 271 277 279 278 278 278 277 278 280 283 284 285 285 284 285 285 285 286 284 282 283 284 286 285 283 282 282 282 282 281 279 279 280 282 284 284 284 282 281
236 234 240 250 252 259 270 270 269 269 273 276 279 278 277 280 280 279 280 283 285 286 286 284 284 285 285 286 286 287 285 284 287 287 285 284 282 281 281 280 278 277 279 281 283 283 283 282 282
240 238 250 253 255 259 263 270 271 276 278 276 279 280 279 280 284 286 284 284 283 285 285 284 284 285 285 285 287 288 288 287 289 289 289 286 284 281 278 279 278 277 278 280 282 281 281 281 281
250 250 254 252 257 267 269 270 273 274 278 275 278 281 283 284 284 284 283 282 283 284 284 284 284 285 285 286 286 286 287 288 288 288 287 287 284 281 278 278 279 279 280 280 281 281 279 279 280
249 253 257 259 258 262 267 272 275 277 277 279 283 287 285 287 286 285 283 283 284 284 284 284 285 285 284 285 286 286 286 287 288 288 287 286 285 282 281 280 280 280 280 280 281 281 280 279 279
251 252 259 264 267 265 268 269 274 277 278 283 288 290 290 290 290 288 287 287 285 285 284 285 286 285 287 286 286 288 288 288 288 288 286 285 284 282 281 281 281 280 280 281 281 282 281 280 280
256 258 261 262 265 266 269 269 271 273 282 287 289 293 293 293 292 289 289 288 286 285 285 286 286 287 288 288 287 287 288 288 288 287 285 284 284 283 282 281 281 281 282 282 282 283 282 280 279
264 267 270 273 272 273 273 271 270 274 282 286 290 294 295 295 293 291 288 285 285 286 287 288 288 288 288 288 288 288 287 288 288 286 285 283 284 283 282 282 282 283 283 283 283 284 283 282 280
270 267 270 272 278 283 283 279 280 282 283 285 289 292 293 294 294 293 290 286 287 287 288 289 289 289 291 290 289 289 288 287 287 287 286 284 283 283 283 284 284 283 283 283 284 284 283 282 280
272 265 270 278 279 278 280 284 287 284 285 287 289 292 295 295 294 292 293 291 291 290 290 291 290 290 292 291 290 290 289 288 288 289 288 287 286 286 285 285 286 284 283 283 283 284 283 281 280
276 273 266 270 275 275 277 278 281 291 293 292 296 297 296 297 296 295 295 296 296 293 293 292 291 291 292 292 291 291 291 291 292 290 289 288 288 287 286 285 286 284 283 283 283 283 282 281 280
279 279 274 270 271 276 280 278 284 291 294 296 301 301 299 296 296 298 298 297 296 296 296 294 293 292 291 292 292 293 293 293 293 294 293 291 290 290 288 288 289 287 284 283 284 285 284 282 280
274 277 279 277 274 271 276 284 287 292 295 297 299 302 302 299 299 301 302 302 301 299 298 297 296 294 293 292 291 291 292 294 295 295 294 292 291 291 291 292 289 288 286 284 284 284 285 284 281
Height
5894 5896 5898 5900 5903 5905 5907 5909 5909 5908 5907 5907 5906 5906 5906 5907 5908 5910 5907 5906 5906 5906 5905 5905 5905 5904 5904 5904 5904 5903 5903 5902 5902 5901 5900 5900 5899 5898 5898 5897 5897 5896 5896 5895 5895 5894 5894 5893 5893
5892 5894 5896 5899 5902 5903 5907 5908 5908 5906 5905 5905 5905 5905 5906 5906 5906 5906 5905 5905 5905 5905 5904 5904 5904 5903 5903 5902 5902 5902 5901 5901 5900 5900 5899 5898 5897 5897 5896 5896 5895 5895 5894 5894 5893 5893 5893 5892 5892
5890 5892 5895 5898 5900 5902 5906 5906 5905 5903 5904 5904 5904 5904 5905 5905 5905 5905 5905 5904 5904 5904 5903 5903 5903 5902 5902 5901 5900 5900 5900 5899 5898 5898 5897 5896 5896 5895 5895 5894 5894 5893 5893 5893 5892 5891 5891 5891 5890
5888 5891 5894 5897 5899 5901 5902 5903 5902 5902 5902 5902 5902 5903 5903 5903 5903 5903 5903 5903 5903 5903 5902 5901 5901 5900 5900 5899 5898 5898 5898 5897 5896 5896 5895 5894 5894 5893 5893 5892 5892 5891 5891 5891 5890 5890 5890 5889 5889
5886 5889 5892 5895 5897 5900 5900 5899 5899 5900 5900 5900 5900 5900 5900 5901 5901 5901 5901 5901 5901 5901 5900 5900 5899 5898 5898 5897 5896 5896 5895 5895 5894 5894 5893 5892 5892 5891 5891 5890 5890 5889 5889 5889 5888 5888 5888 5887 5887
5884 5887 5890 5893 5896 5897 5898 5895 5896 5898 5897 5897 5896 5897 5897 5899 5899 5898 5899 5899 5899 5899 5898 5897 5896 5896 5895 5894 5894 5893 5893 5892 5891 5891 5890 5890 5889 5888 5888 5887 5887 5886 5886 5886 5886 5885 5885 5885 5884
5883 5885 5888 5892 5895 5895 5894 5893 5895 5895 5894 5893 5893 5892 5894 5896 5897 5896 5896 5896 5896 5896 5895 5895 5894 5893 5892 5891 5891 5890 5890 5889 5888 5888 5887 5887 5886 5886 5885 5884 5884 5883 5883 5883 5882 5882 5882 5882 5881
5880 5883 5885 5889 5893 5893 5891 5891 5892 5891 5891 5890 5890 5891 5891 5893 5894 5894 5894 5894 5893 5893 5893 5892 5891 5890 5889 5889 5888 5887 5887 5886 5885 5885 5884 5883 5883 5882 5882 5881 5881 5880 5880 5879 5879 5879 5878 5878 5878
5878 5882 5884 5888 5890 5889 5888 5888 5888 5889 5888 5887 5888 5889 5891 5890 5890 5891 5891 5890 5890 5890 5889 5889 5888 5887 5887 5886 5885 5884 5883 5883 5882 5881 5881 5880 5880 5879 5879 5878 5878 5877 5876 5876 5875 5875 5875 5874 5874
5876 5880 5882 5885 5885 5885 5885 5885 5885 5886 5885 5884 5884 5886 5888 5888 5888 5888 5888 5887 5886 5886 5886 5885 5885 5884 5883 5882 5881 5881 5880 5879 5879 5878 5877 5877 5876 5876 5875 5875 5874 5873 5873 5872 5871 5871 5871 5871 5870
5874 5876 5878 5879 5880 5881 5881 5880 5881 5883 5883 5883 5882 5884 5885 5885 5885 5885 5885 5884 5883 5883 5882 5881 5881 5880 5880 5879 5877 5877 5876 5875 5874 5874 5873 5872 5872 5872 5871 5871 5870 5869 5869 5868 5867 5867 5866 5866 5865
5871 5873 5874 5875 5877 5878 5878 5878 5879 5880 5880 5879 5880 5881 5882 5882 5882 5881 5881 5881 5880 5879 5879 5878 5877 5876 5876 5875 5873 5873 5872 5871 5870 5870 5869 5868 5868 5867 5867 5866 5866 5865 5864 5863 5863 5862 5861 5861 5860
5868 5870 5871 5873 5874 5874 5875 5875 5875 5875 5877 5877 5876 5877 5878 5878 5878 5878 5877 5877 5876 5876 5875 5874 5873 5872 5871 5870 5869 5868 5867 5866 5866 5865 5864 5864 5864 5863 5862 5862 5861 5860 5859 5859 5858 5858 5857 5857 5856
5866 5867 5868 5869 5870 5870 5872 5872 5872 5871 5873 5874 5873 5873 5874 5874 5874 5874 5873 5872 5872 5871 5870 5869 5869 5868 5867 5866 5864 5864 5862 5861 5861 5860 5859 5859 5859 5858 5857 5857 5856 5855 5854 5854 5853 5853 5853 5852 5851
5864 5865 5866 5867 5867 5868 5868 5869 5869 5869 5868 5869 5870 5870 5870 5870 5870 5869 5868 5867 5867 5866 5865 5864 5864 5863 5862 5861 5860 5859 5857 5856 5856 5855 5855 5854 5853 5852 5851 5851 5850 5850 5849 5848 5848 5847 5847 5846 5845
5862 5863 5864 5865 5864 5864 5866 5866 5866 5865 5865 5865 5866 5865 5865 5865 5864 5864 5864 5863 5862 5861 5859 5859 5859 5858 5857 5856 5855 5854 5852 5851 5851 5850 5850 5848 5847 5846 5845 5845 5844 5844 5843 5843 5842 5842 5841 5840 5839
5860 5861 5863 5864 5862 5862 5863 5864 5862 5861 5860 5860 5861 5862 5861 5861 5860 5859 5859 5858 5857 5856 5855 5855 5854 5853 5852 5851 5850 5849 5848 5847 5846 5845 5844 5842 5841 5840 5839 5839 5838 5838 5837 5837 5836 5835 5835 5834 5833
5860 5861 5863 5862 5861 5860 5860 5861 5858 5858 5857 5856 5857 5857 5856 5855 5855 5854 5854 5853 5852 5852 5851 5850 5849 5848 5847 5846 5844 5843 5843 5841 5840 5839 5838 5836 5835 5834 5833 5833 5832 5831 5831 5830 5829 5828 5827 5827 5826
5857 5859 5860 5861 5860 5858 5858 5858 5856 5855 5856 5855 5854 5853 5851 5851 5849 5848 5847 5847 5847 5846 5845 5845 5843 5842 5841 5840 5839 5838 5837 5836 5835 5834 5832 5830 5829 5828 5827 5826 5825 5824 5824 5823 5822 5821 5820 5820 5819
5855 5856 5857 5857 5856 5857 5856 5855 5853 5852 5853 5852 5850 5848 5847 5847 5846 5844 5843 5842 5841 5840 5840 5839 5838 5837 5836 5835 5834 5833 5832 5830 5829 5827 5826 5824 5822 5821 5820 5819 5818 5817 5816 5815 5815 5814 5813 5812 5811
5853 5854 5855 5855 5854 5853 5853 5853 5851 5850 5849 5848 5846 5844 5844 5842 5841 5840 5839 5838 5836 5835 5834 5834 5833 5831 5830 5829 5828 5826 5825 5823 5822 5820 5819 5817 5815 5814 5812 5811 5810 5809 5808 5808 5807 5806 5805 5805 5804
5851 5852 5851 5851 5851 5851 5852 5850 5848 5846 5845 5843 5842 5840 5839 5838 5837 5833 5833 5832 5831 5830 5829 5828 5826 5825 5823 5822 5821 5819 5818 5816 5814 5813 5811 5810 5808 5807 5805 5804 5803 5802 5801 5800 5799 5798 5797 5796 5796
5847 5847 5847 5847 5847 5847 5847 5846 5844 5842 5839 5839 5838 5836 5834 5833 5831 5828 5826 5826 5825 5824 5823 5821 5820 5819 5818 5816 5814 5812 5810 5809 5807 5806 5804 5802 5801 5800 5798 5797 5796 5795 5794 5792 5791 5790 5789 5788 5787
5843 5844 5844 5843 5843 5843 5843 5842 5839 5838 5836 5834 5833 5831 5830 5828 5825 5822 5822 5821 5819 5818 5817 5816 5814 5812 5811 5809 5807 5805 5803 5801 5800 5798 5797 5795 5793 5792 5791 5790 5789 5787 5786 5785 5783 5782 5781 5780 5779
5841 5841 5841 5840 5839 5839 5838 5836 5834 5833 5833 5831 5828 5826 5825 5823 5821 5818 5817 5815 5814 5813 5811 5809 5808 5806 5804 5802 5800 5798 5796 5794 5792 5791 5789 5787 5786 5785 5783 5782 5781 5779 5778 5777 5775 5774 5773 5772 5771
5838 5838 5838 5837 5836 5834 5833 5832 5831 5830 5828 5826 5824 5823 5821 5819 5816 5814 5812 5810 5809 5807 5805 5803 5801 5799 5797 5795 5793 5791 5789 5787 5785 5783 5781 5779 5778 5777 5775 5774 5772 5771 5769 5768 5766 5765 5765 5764 5763
5834 5834 5834 5833 5832 5831 5831 5829 5826 5825 5823 5822 5820 5818 5816 5814 5812 5809 5806 5804 5803 5801 5800 5797 5795 5793 5791 5788 5786 5784 5782 5780 5778 5776 5774 5772 5770 5768 5767 5766 5764 5762 5761 5760 5758 5757 5756 5755 5754
5832 5831 5831 5830 5829 5828 5828 5826 5823 5820 5818 5817 5815 5814 5811 5809 5807 5804 5802 5800 5798 5796 5794 5792 5789 5787 5784 5782 5779 5778 5775 5773 5771 5769 5767 5764 5762 5761 5759 5758 5756 5755 5753 5752 5750 5749 5748 5747 5746
5828 5828 5827 5826 5825 5824 5823 5824 5820 5818 5815 5812 5810 5808 5807 5804 5802 5800 5798 5796 5793 5791 5788 5785 5783 5780 5778 5775 5773 5771 5768 5766 5764 5762 5760 5757 5755 5754 5752 5750 5749 5747 5745 5744 5743 5742 5740 5739 5738
5824 5824 5823 5822 5821 5820 5819 5819 5815 5814 5811 5809 5807 5804 5802 5800 5797 5796 5793 5790 5788 5785 5782 5779 5777 5774 5772 5769 5766 5764 5762 5760 5757 5755 5753 5750 5748 5746 5745 5743 5741 5739 5738 5736 5735 5734 5733 5731 5730